CREW DRAGON 5 DEB

Last updated on Thu Apr 27 2023 00:02:06 GMT+0000 (Coordinated Universal Time)

1 55840U 22124B 23116.46091137 .04792334 12101-4 97969-3 0 9991 2 55840 51.2984 209.5742 0018560 274.6128 174.8542 16.29832867 7260

Satellite not in orbit

CREW DRAGON 5 DEB